Regional Weather Roundup
Issued by NWS

Home | Current Version | Previous Version | Graphics & Text | Print | Product List | Glossary Off
Versions: 1 2 3 4 5 6 7 8 9 10 11 12 13 14 15 16 17 18 19 20 21 22 23 24 25 26 27 28 29 30 31 32 33 34 35 36 37 38 39 40 41 42 43 44 45 46 47 48 49 50

000
ASUS43 KOAX 101510
RWRNE

WEATHER ROUNDUP FOR NEBRASKA
NATIONAL WEATHER SERVICE OMAHA NE
1000 AM CDT THU JUL 10 2014

NOTES: SATELLITE DATA IS BEING USED TO AUGMENT CLOUD COVER ABOVE
       12000 FEET.
       "FAIR" INDICATES FEW OR NO CLOUDS BELOW 12,000 FEET WITH NO
       SIGNIFICANT WEATHER AND/OR OBSTRUCTIONS TO VISIBILITY.

  * THESE STATIONS DO NOT REPORT WEATHER SUCH AS RAIN...SNOW OR FOG.

NEZ001>004-019>022-054>056-101600-
NEBRASKA PANHANDLE

CITY           SKY/WX    TMP DP  RH WIND       PRES   REMARKS
SCOTTSBLUFF    SUNNY     70  57  63 S6        29.97S
ALLIANCE       SUNNY     72  60  66 S12       29.97F
CHADRON        MOSUNNY   74  61  63 S21       29.89S
KIMBALL        SUNNY     72  57  59 S10       30.03S
SIDNEY         SUNNY     73  59  61 S16G23    30.03R
$$

NEZ057>060-069>072-079>082-101600-
SOUTHWEST NEBRASKA

CITY           SKY/WX    TMP DP  RH WIND       PRES   REMARKS
NORTH PLATTE   CLOUDY    70  63  78 SW12G24   29.99F
IMPERIAL       MOSUNNY   71  61  70 S14       30.00S
LEXINGTON      SUNNY     76  66  70 S17       30.00S
MCCOOK         SUNNY     75  64  68 S18G25    29.99F
OGALLALA       PTSUNNY   69  61  76 S12       30.00R
$$

NEZ005>010-023>029-035>040-094-101600-
NORTH CENTRAL NEBRASKA

CITY           SKY/WX    TMP DP  RH WIND       PRES   REMARKS
VALENTINE      CLOUDY    71  62  73 S14G22    29.95F
AINSWORTH      CLOUDY    69  63  82 S10       29.98F
BROKEN BOW     SUNNY     73  65  75 SW14G26   29.99S
O`NEILL        MOSUNNY   71  62  72 S14G23    29.99F
ORD            SUNNY     71  64  78 SE12      29.98F
THEDFORD       CLOUDY    72  64  75 SW14      29.99R
$$

NEZ041-046>049-061>064-073>077-083>087-101600-
SOUTH CENTRAL NEBRASKA

CITY           SKY/WX    TMP DP  RH WIND       PRES   REMARKS
GRAND ISLAND   MOSUNNY   72  64  76 SE9       30.02S
AURORA         CLOUDY    71  67  85 S7        30.02R
HASTINGS       SUNNY     72  62  71 SE6       30.01R
HEBRON         MOSUNNY   75  66  72 S9        30.02S
HOLDREGE       SUNNY     73  64  75 SE5       30.01R
KEARNEY *      SUNNY     72  64  78 S5        30.01R
YORK           MOSUNNY   72  66  83 S12       30.02S
$$

NEZ011>018-030>034-042>045-101600-
NORTHEAST NEBRASKA

CITY           SKY/WX    TMP DP  RH WIND       PRES   REMARKS
NORFOLK        SUNNY     75  63  66 S12G21    30.00S
ALBION         MOSUNNY   71  63  76 S14       30.02R
BLAIR          SUNNY     74  62  65 S13       30.04S
FREMONT        SUNNY     76  65  67 SE13      30.04S
TEKAMAH        SUNNY     75  63  66 SE10      30.03F
WAYNE          SUNNY     74  66  74 SE12      30.02F
$$

NEZ050>053-065>068-078-088>093-101600-
SOUTHEAST NEBRASKA

CITY           SKY/WX    TMP DP  RH WIND       PRES   REMARKS
LINCOLN        SUNNY     77  64  64 S14       30.03S
OMAHA EPPLEY   MOSUNNY   75  62  64 SE16      30.04F
BEATRICE       MOSUNNY   73  64  74 SE12G17   30.03R
FALLS CITY     MOSUNNY   76  63  64 SE16      30.05F
NEBRASKA CITY  MOSUNNY   74  62  67 S15G21    30.05F
PLATTSMOUTH    MOSUNNY   75  63  65 SE10G16   30.04F
$$

NEZ044-045-051>053-067-101600-
OMAHA AREA

CITY           SKY/WX    TMP DP  RH WIND       PRES   REMARKS
OMAHA EPPLEY   MOSUNNY   75  62  64 SE16      30.04F
BLAIR          SUNNY     74  62  65 S13       30.04S
FREMONT        SUNNY     76  65  67 SE13      30.04S
MILLARD        SUNNY     75  64  69 E12G20    30.04R
OFFUTT AFB     SUNNY     76  68  75 SE13      30.04F
PLATTSMOUTH    MOSUNNY   75  63  65 SE10G16   30.04F
WAHOO          FAIR      75  65  71 SE10      30.03F
$$


USA.gov is the U.S. government's official web portal to all federal, state and local government web resources and services.